FW7203 Weather Reports


time (UTC)temp
F
wind
direction
speed
knots
gust
knots
rain 1hr
in
rain 24hr
in
rain mn
in
humidity
%
barometer
mb
20260505125027 74 139 2.6 7.8 0.00 0.00 0.00 93 1009.9
20260505124548 74 180 2.6 6.1 0.00 0.00 0.00 93 1009.7
20260505124027 74 169 2.6 7.0 0.00 0.00 0.00 93 1009.8
20260505123526 74 168 3.5 8.7 0.00 0.00 0.00 93 1009.7
20260505123103 74 179 3.5 8.7 0.00 0.00 0.00 93 1009.5
20260505122527 74 186 3.5 7.8 0.00 0.00 0.00 93 1009.8
20260505122027 74 163 1.7 6.1 0.00 0.00 0.00 93 1009.9
20260505121542 74 167 2.6 6.1 0.00 0.00 0.00 93 1009.8
20260505121027 73 159 0.9 4.3 0.00 0.00 0.00 94 1009.9
20260505120527 73 165 0.0 4.3 0.00 0.00 0.00 94 1010.0
20260505120046 73 174 2.6 5.2 0.00 0.00 0.00 94 1009.7
20260505115526 73 161 0.9 6.1 0.00 0.00 0.00 94 1009.7
20260505115027 73 154 3.5 6.1 0.00 0.00 0.00 94 1009.7
20260505114609 73 163 2.6 5.2 0.00 0.00 0.00 94 1009.7
20260505114027 73 161 1.7 6.1 0.00 0.00 0.00 94 1009.6
20260505113527 73 166 3.5 6.1 0.00 0.00 0.00 94 1009.4
20260505113046 73 169 2.6 4.3 0.00 0.00 0.00 93 1009.7
20260505112531 73 174 0.9 3.5 0.00 0.00 0.00 93 1009.9
20260505112027 73 172 1.7 3.5 0.00 0.00 0.00 93 1009.9
20260505111556 73 175 2.6 3.5 0.00 0.00 0.00 93 1010.0
20260505111026 73 169 0.0 4.3 0.00 0.00 0.00 93 1010.1
20260505110527 73 0 1.7 5.2 0.00 0.00 0.00 93 1009.8
20260505102027 73 167 2.6 5.2 0.00 0.00 0.00 93 1009.6
20260505101544 73 168 1.7 4.3 0.00 0.00 0.00 93 1009.6
20260505101027 73 160 2.6 4.3 0.00 0.00 0.00 93 1009.6
20260505100527 72 157 1.7 3.5 0.00 0.00 0.00 93 1009.7
20260505100048 72 166 1.7 3.5 0.00 0.00 0.00 93 1009.7
20260505095530 72 167 0.9 3.5 0.00 0.00 0.00 93 1009.7
20260505095027 72 167 0.9 3.5 0.00 0.00 0.00 93 1009.7
20260505094545 72 167 0.0 2.6 0.00 0.00 0.00 93 1009.8
20260505094029 72 0 0.0 3.5 0.00 0.00 0.00 93 1009.9
20260505093526 72 0 0.0 3.5 0.00 0.00 0.00 93 1009.9
20260505093042 72 167 0.9 3.5 0.00 0.00 0.00 93 1009.9
20260505092527 72 167 1.7 4.3 0.00 0.00 0.00 93 1009.9
20260505092026 72 163 0.9 4.3 0.00 0.00 0.00 93 1009.8
20260505091543 72 165 0.9 1.7 0.00 0.00 0.00 93 1009.9
20260505091027 72 165 0.0 1.7 0.00 0.00 0.00 93 1009.9
20260505090527 72 165 0.9 4.3 0.00 0.00 0.00 93 1010.0
20260505090050 72 165 0.9 4.3 0.00 0.00 0.00 93 1010.0
20260505085527 72 163 0.0 5.2 0.00 0.00 0.00 93 1010.0
20260505085027 73 163 0.9 5.2 0.00 0.00 0.00 93 1009.8
20260505084547 73 163 1.7 5.2 0.00 0.00 0.00 93 1009.9
20260505084026 73 161 0.9 6.1 0.00 0.00 0.00 92 1009.7
20260505083526 73 174 1.7 6.1 0.00 0.00 0.00 92 1009.8
20260505083050 73 165 1.7 6.1 0.00 0.00 0.00 92 1009.9
20260505082526 73 165 0.9 6.1 0.00 0.00 0.00 92 1010.0
20260505082027 73 167 2.6 6.1 0.00 0.00 0.00 91 1010.0
20260505081553 73 175 1.7 5.2 0.00 0.00 0.00 91 1010.0
20260505081026 73 163 2.6 5.2 0.00 0.00 0.00 91 1010.0
20260505080526 73 176 1.7 4.3 0.00 0.00 0.00 90 1010.1
20260505080046 73 169 1.7 4.3 0.00 0.00 0.00 90 1010.2
20260505075527 73 167 1.7 5.2 0.00 0.00 0.00 90 1010.3
20260505075027 73 163 0.9 5.2 0.00 0.00 0.00 90 1010.2
20260505074547 73 157 1.7 5.2 0.00 0.00 0.00 90 1010.2
20260505074027 73 166 1.7 4.3 0.00 0.00 0.00 90 1010.3
20260505073527 73 170 0.9 5.2 0.00 0.00 0.00 90 1010.2
20260505073045 73 175 1.7 6.1 0.00 0.00 0.00 89 1010.2
20260505072527 73 176 1.7 9.6 0.00 0.00 0.00 89 1010.4
20260505072027 73 158 2.6 9.6 0.00 0.00 0.00 89 1010.5
20260505071543 73 165 2.6 5.2 0.00 0.00 0.00 90 1010.5
20260505071026 73 171 1.7 4.3 0.00 0.00 0.00 89 1010.6
20260505070526 73 164 1.7 6.1 0.00 0.00 0.00 89 1010.7
20260505070047 73 163 1.7 6.1 0.00 0.00 0.00 89 1010.8
20260505065527 73 157 1.7 6.1 0.00 0.00 0.00 89 1011.0
20260505065026 73 162 1.7 5.2 0.00 0.00 0.00 89 1011.0
20260505064558 72 170 0.9 4.3 0.00 0.00 0.00 89 1011.0
20260505064027 72 168 2.6 4.3 0.00 0.00 0.00 90 1011.1
20260505063527 72 175 0.9 4.3 0.00 0.00 0.00 90 1011.4
20260505063050 72 173 0.9 4.3 0.00 0.00 0.00 90 1011.3
20260505062527 72 175 1.7 4.3 0.00 0.00 0.00 90 1011.3
20260505062026 72 175 1.7 7.0 0.00 0.00 0.00 90 1011.3
20260505061544 72 175 0.9 7.0 0.00 0.00 0.00 90 1011.4
20260505061026 72 173 1.7 4.3 0.00 0.00 0.00 90 1011.3
20260505060526 72 158 0.9 3.5 0.00 0.00 0.00 90 1011.3
20260505060047 71 150 0.9 4.3 0.00 0.00 0.00 90 1011.4
20260505055527 71 144 1.7 4.3 0.00 0.00 0.00 90 1011.4
20260505055027 71 164 0.9 3.5 0.00 0.00 0.00 90 1011.4
20260505054556 71 165 0.9 4.3 0.00 0.00 0.00 90 1011.4
20260505054026 71 164 1.7 4.3 0.00 0.00 0.00 90 1011.4
20260505053526 71 165 0.9 5.2 0.00 0.00 0.00 90 1011.5
20260505053100 71 165 1.7 5.2 0.00 0.00 0.00 89 1011.4
20260505052527 71 163 0.9 4.3 0.00 0.00 0.00 89 1011.4
20260505052027 71 163 1.7 5.2 0.00 0.00 0.00 89 1011.4
20260505051545 71 165 2.6 6.1 0.00 0.00 0.00 89 1011.5
20260505051029 72 166 2.6 6.1 0.00 0.00 0.00 88 1011.5
20260505050533 72 157 2.6 6.1 0.00 0.00 0.00 88 1011.5
20260505041608 71 165 2.6 5.2 0.00 0.00 0.00 88 1011.8
20260505041029 71 165 1.7 4.3 0.00 0.00 0.00 87 1011.9
20260505040530 71 164 2.6 4.3 0.00 0.00 0.00 88 1012.1
20260505040048 71 165 1.7 5.2 0.00 0.00 0.00 87 1012.0
20260505035529 71 162 1.7 5.2 0.00 0.00 0.00 87 1012.0
20260505035029 71 157 1.7 5.2 0.00 0.00 0.00 88 1012.3
20260505034546 71 165 1.7 5.2 0.00 0.00 0.00 88 1012.3
20260505034031 71 170 1.7 4.3 0.00 0.00 0.00 88 1012.1
20260505033531 71 165 0.9 3.5 0.00 0.00 0.00 88 1012.1
20260505033041 71 166 0.9 2.6 0.00 0.00 0.00 88 1012.2
20260505032529 71 165 0.9 1.7 0.00 0.00 0.00 88 1012.1
20260505032033 71 165 0.9 1.7 0.00 0.00 0.00 87 1012.1
20260505031540 71 165 0.0 4.3 0.00 0.00 0.00 87 1012.2
20260505031029 71 165 2.6 4.3 0.00 0.00 0.00 87 1012.1
20260505030529 71 165 0.9 4.3 0.00 0.00 0.00 87 1012.1
20260505030040 71 163 0.0 1.7 0.00 0.00 0.00 87 1012.2
20260505025529 71 0 0.0 2.6 0.00 0.00 0.00 86 1012.2
20260505025029 71 168 0.9 3.5 0.00 0.00 0.00 86 1012.1
20260505024547 71 167 0.9 4.3 0.00 0.00 0.00 86 1012.0
20260505024029 71 169 1.7 4.3 0.00 0.00 0.00 86 1012.1
20260505023529 71 170 1.7 3.5 0.00 0.00 0.00 85 1012.2
20260505023049 71 172 0.9 3.5 0.00 0.00 0.00 85 1012.1
20260505022532 71 171 0.9 3.5 0.00 0.00 0.00 85 1012.1
20260505022027 71 171 1.7 4.3 0.00 0.00 0.00 85 1012.1
20260505021545 72 165 0.9 4.3 0.00 0.00 0.00 84 1012.1
20260505021026 72 169 1.7 4.3 0.00 0.00 0.00 84 1012.0
20260505020529 72 165 0.9 5.2 0.00 0.00 0.00 84 1012.2
20260505020040 72 161 1.7 5.2 0.00 0.00 0.00 83 1012.0
20260505015530 72 161 1.7 5.2 0.00 0.00 0.00 83 1011.9
20260505015033 72 168 1.7 5.2 0.00 0.00 0.00 83 1011.9
20260505014545 72 169 2.6 4.3 0.00 0.00 0.00 83 1011.8
20260505014029 72 177 1.7 4.3 0.00 0.00 0.00 83 1012.0
20260505013532 72 165 1.7 4.3 0.00 0.00 0.00 83 1011.9
20260505013045 72 172 1.7 4.3 0.00 0.00 0.00 83 1012.0
20260505012529 72 169 0.9 5.2 0.00 0.00 0.00 83 1012.1
20260505012029 73 168 1.7 5.2 0.00 0.00 0.00 82 1011.9
20260505011546 73 164 1.7 4.3 0.00 0.00 0.00 82 1011.9
20260505011029 73 169 2.6 7.0 0.00 0.00 0.00 82 1011.8
20260505010530 73 170 1.7 7.0 0.00 0.00 0.00 81 1012.0
20260505010046 73 171 1.7 7.0 0.00 0.00 0.00 81 1011.9
20260505005530 73 163 3.5 7.0 0.00 0.00 0.00 81 1011.9
20260505005030 73 170 2.6 7.8 0.00 0.00 0.00 80 1011.8
20260505004545 73 177 3.5 7.8 0.00 0.00 0.00 80 1011.8
20260505004029 73 193 3.5 8.7 0.00 0.00 0.00 80 1011.8
20260505003530 73 202 4.3 8.7 0.00 0.00 0.00 79 1011.7
20260505003044 74 159 4.3 8.7 0.00 0.00 0.00 79 1011.7
20260505002531 74 184 4.3 9.6 0.00 0.00 0.00 79 1011.8
20260505002029 74 175 4.3 10.4 0.00 0.00 0.00 78 1011.9
20260505001549 74 171 5.2 10.4 0.00 0.00 0.00 78 1011.8
20260505001029 74 183 6.1 10.4 0.00 0.00 0.00 78 1012.0
20260505000529 74 161 6.1 10.4 0.00 0.00 0.00 77 1012.0
20260505000054 74 159 6.1 9.6 0.00 0.00 0.00 77 1012.1
20260504235529 75 165 4.3 8.7 0.00 0.00 0.00 77 1012.0
20260504235029 75 170 5.2 8.7 0.00 0.00 0.00 77 1012.0
20260504234552 75 164 2.6 8.7 0.00 0.00 0.00 77 1012.0
20260504234026 75 153 3.5 8.7 0.00 0.00 0.00 77 1012.1
20260504233528 75 173 4.3 9.6 0.00 0.00 0.00 77 1012.2
20260504233042 75 147 3.5 12.2 0.00 0.00 0.00 77 1012.3
20260504232529 75 155 7.0 12.2 0.00 0.00 0.00 76 1012.2
20260504232026 75 134 3.5 8.7 0.00 0.00 0.00 76 1012.3
20260504231557 75 165 2.6 7.0 0.00 0.00 0.00 77 1012.4
20260504231029 75 188 3.5 7.8 0.00 0.00 0.00 77 1012.5
20260504230527 75 198 3.5 9.6 0.00 0.00 0.00 76 1012.5
20260504230041 75 360 3.5 9.6 0.00 0.00 0.00 76 1012.5
20260504225526 75 153 4.3 10.4 0.00 0.00 0.00 76 1012.5
20260504225026 75 140 3.5 10.4 0.00 0.00 0.00 75 1012.5
20260504224542 76 157 5.2 9.6 0.00 0.00 0.00 75 1012.6
20260504224032 76 153 3.5 8.7 0.00 0.00 0.00 74 1012.7
20260504223534 76 206 4.3 9.6 0.00 0.00 0.00 75 1012.8
20260504223047 75 153 4.3 9.6 0.00 0.00 0.00 75 1013.0
20260504222530 75 153 3.5 9.6 0.00 0.00 0.00 76 1013.1
20260504222028 75 177 3.5 9.6 0.00 0.00 0.00 75 1013.1
20260504221556 75 157 1.7 7.0 0.00 0.00 0.00 76 1013.0
20260504221030 75 146 1.7 7.0 0.00 0.00 0.00 75 1013.0
20260504220528 75 163 2.6 8.7 0.00 0.00 0.00 75 1013.1
20260504220046 75 168 4.3 8.7 0.00 0.00 0.00 74 1013.1
20260504215526 76 141 1.7 9.6 0.00 0.00 0.00 75 1013.2
20260504215031 75 174 4.3 9.6 0.00 0.00 0.00 75 1013.2
20260504214548 76 161 4.3 9.6 0.00 0.00 0.00 74 1013.2
20260504214030 76 167 5.2 8.7 0.00 0.00 0.00 74 1013.3
20260504213528 76 200 2.6 10.4 0.00 0.00 0.00 74 1013.4
20260504213044 76 172 5.2 10.4 0.00 0.00 0.00 74 1013.3
20260504212529 76 172 4.3 11.3 0.00 0.00 0.00 73 1013.3
20260504212027 77 180 3.5 11.3 0.00 0.00 0.00 73 1013.3
20260504211548 77 167 5.2 12.2 0.00 0.00 0.00 73 1013.4
20260504211027 76 158 5.2 12.2 0.00 0.00 0.00 73 1013.7
20260504210527 77 162 2.6 8.7 0.00 0.00 0.00 72 1013.7
20260504210105 77 178 4.3 8.7 0.00 0.00 0.00 73 1013.6
20260504205526 77 158 4.3 8.7 0.00 0.00 0.00 72 1013.7
20260504205025 77 169 4.3 7.8 0.00 0.00 0.00 73 1013.7
20260504204548 77 172 2.6 10.4 0.00 0.00 0.00 73 1013.9
20260504204026 77 166 2.6 12.2 0.00 0.00 0.00 72 1013.8
20260504203527 77 190 4.3 12.2 0.00 0.00 0.00 72 1014.0
20260504203049 77 157 2.6 9.6 0.00 0.00 0.00 73 1014.0
20260504202527 77 173 4.3 9.6 0.00 0.00 0.00 69 1013.9
20260504202027 77 194 1.7 10.4 0.00 0.00 0.00 69 1014.1
20260504201547 77 152 1.7 10.4 0.00 0.00 0.00 69 1014.2
20260504201028 78 158 3.5 10.4 0.00 0.00 0.00 70 1014.3
20260504200526 78 180 2.6 11.3 0.00 0.00 0.00 69 1014.2
20260504200046 78 144 6.1 11.3 0.00 0.00 0.00 69 1014.3
20260504195526 79 162 0.9 10.4 0.00 0.00 0.00 69 1014.3
20260504195027 77 201 3.5 10.4 0.00 0.00 0.00 71 1014.2
20260504194559 78 149 2.6 9.6 0.00 0.00 0.00 70 1014.4
20260504194026 77 175 2.6 9.6 0.00 0.00 0.00 71 1014.5
20260504193525 78 130 6.1 10.4 0.00 0.00 0.00 67 1014.7
20260504193048 79 169 2.6 10.4 0.00 0.00 0.00 69 1014.8
20260504192529 78 173 5.2 11.3 0.00 0.00 0.00 70 1014.9
20260504192029 78 171 6.1 11.3 0.00 0.00 0.00 69 1014.7
20260504191549 79 184 2.6 10.4 0.00 0.00 0.00 68 1014.7
20260504191026 78 175 3.5 12.2 0.00 0.00 0.00 68 1014.9
20260504190532 78 156 7.0 13.9 0.00 0.00 0.00 68 1015.0
20260504190108 78 194 4.3 13.9 0.00 0.00 0.00 68 1015.0
20260504185532 78 165 3.5 13.9 0.00 0.00 0.00 67 1015.0
20260504185031 78 275 5.2 10.4 0.00 0.00 0.00 69 1014.9
20260504184555 78 151 4.3 10.4 0.00 0.00 0.00 69 1015.0
20260504184027 78 181 2.6 10.4 0.00 0.00 0.00 70 1015.0
20260504183530 77 150 7.0 13.0 0.00 0.00 0.00 69 1015.1
20260504183044 77 194 5.2 13.9 0.00 0.00 0.00 69 1015.2
20260504182527 77 155 5.2 13.9 0.00 0.00 0.00 69 1015.3
20260504182027 78 171 7.0 13.9 0.00 0.00 0.00 68 1015.3
20260504181553 79 184 2.6 7.8 0.00 0.00 0.00 72 1015.5
20260504181026 78 165 2.6 11.3 0.00 0.00 0.00 72 1015.6
20260504180526 77 179 3.5 11.3 0.00 0.00 0.00 69 1015.5
20260504180122 77 154 6.1 12.2 0.00 0.00 0.00 69 1015.7
20260504175527 77 190 7.0 12.2 0.00 0.00 0.00 69 1015.6
20260504175026 77 156 2.6 9.6 0.00 0.00 0.00 69 1015.7
20260504174549 76 172 4.3 9.6 0.00 0.00 0.00 69 1015.8
20260504174026 76 198 5.2 10.4 0.00 0.00 0.00 69 1015.9
20260504173526 77 170 4.3 10.4 0.00 0.00 0.00 68 1016.0
20260504173053 77 149 4.3 9.6 0.00 0.00 0.00 70 1016.0
20260504172526 77 155 3.5 11.3 0.00 0.00 0.00 70 1015.9
20260504172027 77 152 6.1 11.3 0.00 0.00 0.00 70 1016.1
20260504171546 77 123 4.3 12.2 0.00 0.00 0.00 70 1016.2
20260504171027 77 192 5.2 12.2 0.00 0.00 0.00 68 1016.1
20260504170526 78 148 3.5 10.4 0.00 0.00 0.00 69 1016.1
20260504151028 76 167 5.2 10.4 0.00 0.00 0.00 72 1016.7
20260504150527 75 143 2.6 11.3 0.00 0.00 0.00 72 1016.8
20260504141027 72 148 1.7 4.3 0.00 0.00 0.00 79 1016.5
20260504140526 72 167 1.7 6.1 0.00 0.00 0.00 80 1016.4
20260504130530 59 0 0.0 0.0 0.00 0.00 0.00 98 1016.7